Zurück zum Katalog

SL-8 DEB

AktivLEO
NORAD 38665·DEBRIS·🇷🇺 Russia

Gestartet Apr 23, 1971 von Plesetsk Cosmodrome

Loading…

Nächste Überflüge (nächste 24 Stunden)

TLE

AlterndSource: Space-Track

Epoche: Sep 12, 2026, 01:20 UTC

1 38665U 71035E   26255.05567510  .00000109  00000-0  44412-4 0  9992
2 38665  74.0478 148.9237 0031131 247.0497 112.7371 14.38276549690394

Verfolge SL-8 DEB in Echtzeit mit AllMySat

Download on the App Store